Regional Weather Roundup
Issued by NWS

Home | Current Version | Previous Version | Text Only | Print | Product List | Glossary On
Versions: 1 2 3 4 5 6 7 8 9 10 11 12 13 14 15 16 17 18 19 20 21 22 23 24 25 26 27 28 29 30 31 32 33 34 35 36 37 38 39 40 41 42 43 44 45 46 47 48 49 50
000
ASUS43 KTOP 041859
RWRKS

WEATHER ROUNDUP FOR KANSAS
NATIONAL WEATHER SERVICE GOODLAND KS
200 PM CDT FRI SEP 04 2015

NOTE:  "FAIR" INDICATES FEW OR NO CLOUDS BELOW 12,000 FEET WITH NO
SIGNIFICANT WEATHER AND/OR OBSTRUCTIONS TO VISIBILITY.

KSZ001>006-013>018-027>032-041>047-042000-
NORTHWEST KANSAS

CITY           SKY/WX    TMP DP  RH WIND       PRES   REMARKS
GOODLAND       SUNNY     91  47  21 MISG      29.92F
HAYS           SUNNY     97  61  30 S23G29    29.85F HX  97
HILL CITY      SUNNY     96  57  27 S12       29.84F HX  95
RUSSELL        SUNNY     96  61  31 S28G36    29.85F HX  96
$$

KSZ061>065-074>080-084>089-042000-
SOUTHWEST KANSAS

CITY           SKY/WX    TMP DP  RH WIND       PRES   REMARKS
DODGE CITY     SUNNY     93  55  27 S22G28    29.91F
ELKHART          N/A     92  60  34 S12         N/A
GARDEN CITY    MOSUNNY   91  56  30 S14G23    29.91F
GREAT BEND     SUNNY     95  63  34 S26G36    29.86F HX  96
LIBERAL        PTSUNNY   82  61  47 S10       29.94F
$$

KSZ066>073-081>083-090>101-042000-
SOUTHEAST KANSAS

CITY           SKY/WX    TMP DP  RH WIND       PRES   REMARKS
CHANUTE        MOSUNNY   88  70  55 S14G22    29.99F
COFFEYVILLE    MOSUNNY   89  72  56 S13       29.98F HX  96
HUTCHINSON     SUNNY     93  65  39 S21G29    29.92F HX  95
NEWTON         SUNNY     91  64  40 S20G25    29.97F
PARSONS        MOSUNNY   88  72  58 S9G17     29.99F
WICHITA INTL   MOSUNNY   92  65  40 S17G26    29.93F
WICHITA JABRA  SUNNY     89  67  47 S16G24    29.94F
WINFIELD       MOSUNNY   94  65  38 S15G25    29.96F HX  96
$$

KSZ007>012-019>026-033>040-048>060-102>105-042000-
NORTHEAST KANSAS

CITY           SKY/WX    TMP DP  RH WIND       PRES   REMARKS
CONCORDIA      SUNNY     92  65  40 S21G33    29.87F
EMPORIA        SUNNY     90  66  45 S21       29.96F
LAWRENCE       SUNNY     93  68  43 S17       29.95F HX  97
MANHATTAN      SUNNY     95  64  35 S22       29.91F HX  97
OLATHE IND     SUNNY     89  69  51 S13       29.98F
OLATHE EXE     SUNNY     87  68  52 S14       29.98F
SALINA         SUNNY     94  65  38 S22G32    29.89F HX  96
TOPEKA BILLARD SUNNY     91  66  43 S16G23    29.95S
TOPEKA FORBES  SUNNY     91  67  44 S14G24    29.95F
$$



USA.gov is the U.S. government's official web portal to all federal, state and local government web resources and services.